Effective Sunday, March 17, 2024, the National Weather Service National Data Buoy Center will discontinue its Dial-A-Buoy Interactive Voice Response system. For more information, see Service Change Notice 24-06 (PDF).

Station JMPN7 - 8658163 - Wrightsville Beach, NC Image indicating link to RSS feed of recent meteorological observations for station JMPN7


Conditions at JMPN7 as of
(10:18 pm EST on 02/23/2024)
0318 GMT on 02/24/2024:
     

Click on the graph icon in the table below to see a time series plot of the last five days of that observation.

5-day plot - Wind Direction Wind Direction (WDIR): W ( 270 deg true )
5-day plot - Wind Speed Wind Speed (WSPD): 4.1 kts
5-day plot - Wind Gust Wind Gust (GST): 7.0 kts
5-day plot - Atmospheric Pressure Atmospheric Pressure (PRES):29.62 in
5-day plot - Air Temperature Air Temperature (ATMP): 55.2 °F
5-day plot - Water Temperature Water Temperature (WTMP): 53.6 °F
5-day plot - Wind Speed at 10 Meters Wind Speed at 10 meters (WSPD10M): 3.9 kts
5-day plot - Wind Speed at 20 Meters Wind Speed at 20 meters (WSPD20M): 5.8 kts
5-day plot -  Wind Speed, Wind Gust and Atmospheric Pressure Combined plot of Wind Speed, Gust, and Air Pressure
NOS Water Level Observation Network Water Level
Previous observations
TIME
(EST)
5-day plot - Wind Direction
WDIR
 
5-day plot - Wind Speed
WSPD
kts
5-day plot - Wind Gust
GST
kts
5-day plot - Wave Height
WVHT
ft
5-day plot - Dominant Wave Period
DPD
sec
5-day plot - Average Wave Period
APD
sec
5-day plot - Mean Wave Direction
MWD
 
5-day plot - Atmospheric Pressure
PRES
in
5-day plot - Pressure Tendency
PTDY
in
5-day plot - Air Temperature
ATMP
°F
5-day plot - Water Temperature
WTMP
°F
5-day plot - Dew Point
DEWP
°F
5-day plot - Salinity
SAL
psu
5-day plot - Visibility
VIS
nmi
5-day plot - Tide (above MLLW)
TIDE
ft
2024-02-23 10:12 pm W 5.1 8.9----29.61- 55.4 53.6----
2024-02-23 10:06 pm W 6.0 8.0----29.61- 55.6 53.6----
2024-02-23 10:00 pm W 6.0 8.0----29.61+0.04 55.6 53.8----
2024-02-23 09:54 pm W 5.1 8.9----29.61- 55.8 53.8----
2024-02-23 09:48 pmWNW 6.0 8.9----29.61- 55.8 53.8----
2024-02-23 09:42 pmWNW 5.1 7.0----29.61- 55.9 53.8----
2024-02-23 09:36 pmWNW 5.1 8.9----29.61- 55.9 53.8----
2024-02-23 09:30 pmWNW 5.1 8.0----29.61- 56.1 53.8----
2024-02-23 09:24 pmWNW 5.1 8.0----29.61- 56.1 53.6----
2024-02-23 09:18 pmWNW 6.0 8.0----29.61- 56.3 53.6----
2024-02-23 09:12 pmWNW 4.1 8.0----29.60- 56.3 53.8----
2024-02-23 09:06 pmWNW 6.0 8.9----29.61- 56.3 53.8----
2024-02-23 09:00 pmWNW 6.0 9.9----29.61+0.06 56.5 53.8----
2024-02-23 08:54 pmWNW 7.0 9.9----29.60- 56.5 53.8----
2024-02-23 08:48 pmWNW 6.0 11.1----29.60- 56.5 53.8----
2024-02-23 08:42 pmWNW 7.0 11.1----29.60- 56.7 53.8----
2024-02-23 08:36 pmWNW 6.0 12.0----29.60- 56.7 53.8----
2024-02-23 08:30 pmWNW 8.0 12.0----29.60-------
2024-02-23 08:24 pmWNW 7.0 11.1----29.59-------
2024-02-23 08:18 pmWNW 7.0 9.9----29.59-- 53.6----
2024-02-23 08:12 pmWNW 6.0 8.0----29.59-- 53.6----
2024-02-23 08:06 pmWNW 5.1 8.0----29.59-- 53.6----
2024-02-23 08:00 pmWNW 5.1 6.0----29.58+0.06- 53.6----
2024-02-23 07:54 pm W 6.0 7.0----29.58-- 53.6----
2024-02-23 07:48 pm W 4.1 7.0----29.58-- 53.6----
2024-02-23 07:42 pmWNW 4.1 6.0----29.57-- 53.6----
2024-02-23 07:36 pm W 4.1 6.0----29.57-- 53.6----
2024-02-23 07:30 pm W 4.1 8.0----29.57-- 53.6----
2024-02-23 07:24 pm W 4.1 8.9----29.57-- 53.6----
2024-02-23 07:18 pm W 6.0 8.9----29.57-- 53.6----
2024-02-23 07:12 pmWNW 6.0 9.9----29.57-- 53.6----
2024-02-23 07:06 pm W 7.0 12.0----29.57-- 53.6----
2024-02-23 07:00 pm W 7.0 9.9----29.58+0.11------
2024-02-23 06:54 pm W 7.0 9.9----29.57-------
2024-02-23 06:48 pm W 6.0 8.9----29.56- 57.2 53.6----
2024-02-23 06:42 pm W 4.1 6.0----29.56- 57.0 53.6----
2024-02-23 06:36 pm W 5.1 7.0----29.56- 57.0 53.6----
2024-02-23 06:30 pm W 2.9 5.1----29.55- 57.0 53.8----
2024-02-23 06:24 pmWSW 4.1 6.0----29.55- 57.2 53.8----
2024-02-23 06:18 pmWSW 5.1 6.0----29.55-- 53.8----
2024-02-23 06:12 pmWSW 5.1 8.0----29.55-- 53.8----
2024-02-23 06:06 pm W 6.0 8.0----29.55-- 53.8----
2024-02-23 06:00 pm W 5.1 8.9----29.55+0.06 57.6 53.8----
2024-02-23 05:54 pm W 5.1 11.1----29.54- 57.7 53.8----
2024-02-23 05:48 pm W 7.0 9.9----29.54- 57.7 53.8----
2024-02-23 05:42 pm W 7.0 9.9----29.53- 57.9 53.8----
2024-02-23 05:36 pm W 9.9 15.0----29.53- 58.1 53.8----
2024-02-23 05:30 pm W 9.9 14.0----29.54- 58.5 53.8----
2024-02-23 05:24 pmWNW 11.1 14.0----29.53- 59.0 53.8----
2024-02-23 05:18 pmWNW 13.0 18.1----29.53- 59.5 53.8----
2024-02-23 05:12 pm NW 12.0 18.1----29.52- 59.7 54.0----
2024-02-23 05:06 pmWNW 11.1 17.1----29.52- 59.7 53.8----
2024-02-23 05:00 pm W 12.0 19.0----29.52+0.02 59.7 53.8----
2024-02-23 04:54 pmWSW 11.1 21.0----29.50- 59.7 53.8----
2024-02-23 04:48 pm SW 13.0 20.0----29.49- 59.9 54.0----
2024-02-23 04:42 pm SW 14.0 17.1----29.49- 59.9 54.0----
2024-02-23 04:36 pm SW 13.0 19.0----29.49- 59.7 53.8----
2024-02-23 04:30 pm SW 15.0 19.0----29.48- 59.7 53.8----
2024-02-23 04:24 pm SW 13.0 17.1----29.48- 59.7 53.8----
2024-02-23 04:18 pm SW 14.0 15.9----29.48- 59.5 53.6----
2024-02-23 04:12 pm SW 14.0 19.0----29.47- 59.5 53.6----
2024-02-23 04:06 pm SW 13.0 18.1----29.47- 59.5 53.6----
2024-02-23 04:00 pm SW 15.0 20.0----29.47-0.05 59.5 53.6----
2024-02-23 03:54 pm SW 15.9 20.0----29.47- 59.4 53.6----
2024-02-23 03:48 pm SW 18.1 22.9----29.47- 59.4 53.8----
2024-02-23 03:42 pm SW 15.0 22.0----29.47- 59.4 53.8----
2024-02-23 03:36 pm SW 14.0 22.0----29.47- 59.0 53.6----
2024-02-23 03:30 pm SW 15.0 22.0----29.48- 58.8 53.6----
2024-02-23 03:24 pm SW 15.0 21.0----29.48- 58.8 53.6----
2024-02-23 03:18 pm SW 15.0 19.0----29.48- 58.8 53.6----
2024-02-23 03:12 pm SW 15.0 21.0----29.48- 58.6 53.6----
2024-02-23 03:06 pm SW 14.0 19.0----29.48- 58.5 53.8----
2024-02-23 03:00 pm SW 15.9 24.1----29.49-0.07 58.5 53.8----
2024-02-23 02:54 pm SW 15.0 19.0----29.49- 58.5 53.6----
2024-02-23 02:48 pm SW 14.0 22.9----29.49- 58.3 53.6----
2024-02-23 02:42 pm SW 20.0 25.1----29.49- 58.5 53.6----
2024-02-23 02:36 pm SW 15.9 22.0----29.49- 58.1 53.6----
2024-02-23 02:30 pm SW 19.0 24.1----29.49- 57.9 53.6----
2024-02-23 02:24 pm SW 18.1 22.0----29.49- 57.7 53.6----
2024-02-23 02:18 pm SW 19.0 25.1----29.49- 57.7 53.6----
2024-02-23 02:12 pm SW 18.1 25.1----29.50- 57.6 53.6----
2024-02-23 02:06 pm SW 15.0 24.1----29.50- 57.4 53.6----
2024-02-23 02:00 pm SW 19.0 22.0----29.50-0.09 57.6 53.6----
2024-02-23 01:54 pm SW 19.0 24.1----29.50- 57.7 53.6----
2024-02-23 01:48 pm SW 18.1 28.0----29.50- 57.7 53.6----
2024-02-23 01:42 pm SW 17.1 22.9----29.51- 58.3 53.4----
2024-02-23 01:36 pm SW 17.1 21.0----29.51- 58.5 53.6----
2024-02-23 01:30 pm SW 18.1 29.9----29.51- 58.6 53.6----
2024-02-23 01:24 pm SW 19.0 27.0----29.51- 59.0 53.6----
2024-02-23 01:18 pm SW 22.0 27.0----29.51- 59.2 53.4----
2024-02-23 01:12 pm SW 22.9 27.0----29.52- 59.0 53.4----
2024-02-23 01:06 pm SW 22.9 28.9----29.52- 59.0 53.6----
2024-02-23 01:00 pm SW 25.1 31.1----29.52-0.10 59.0 53.4----
2024-02-23 12:54 pm SW 22.9 28.9----29.52- 59.2 53.6----
2024-02-23 12:48 pm SW 24.1 33.0----29.53- 59.4 53.6----
2024-02-23 12:42 pm SW 22.9 26.0----29.53- 59.5 53.6----
2024-02-23 12:36 pm SW 22.0 33.0----29.53- 59.4 53.4----
2024-02-23 12:30 pm SW 21.0 32.1----29.54- 59.2 53.4----
2024-02-23 12:24 pm SW 24.1 31.1----29.54- 59.2 53.4----
2024-02-23 12:18 pm SW 21.0 29.9----29.54- 59.2 53.4----
2024-02-23 12:12 pm SW 22.0 32.1----29.55- 59.2 53.4----
2024-02-23 12:06 pm SW 21.0 29.9----29.56- 59.0 53.4----
2024-02-23 12:00 pm SW 26.0 29.9----29.56-0.08 59.2 53.4----
2024-02-23 11:54 am SW 27.0 36.9----29.56- 59.2 53.4----
2024-02-23 11:48 am SW 24.1 32.1----29.57- 59.0 53.4----
2024-02-23 11:42 am SW 22.9 29.9----29.57- 58.8 53.4----
2024-02-23 11:36 am SW 25.1 34.0----29.57- 59.0 53.4----
2024-02-23 11:30 amSSW 28.0 32.1----29.57- 58.8 53.4----
2024-02-23 11:24 amSSW 28.9 33.0----29.57- 58.6 53.2----
2024-02-23 11:18 amSSW 22.9 33.0----29.58- 58.5 53.2----
2024-02-23 11:12 amSSW 26.0 28.9----29.58- 58.3 53.2----
2024-02-23 11:06 am SW 22.9 32.1----29.59- 57.9 53.2----
2024-02-23 11:00 am SW 26.0 33.0----29.59-0.04 57.9 53.2----
2024-02-23 10:54 am SW 22.0 28.0----29.60- 57.7 53.2----
2024-02-23 10:48 am SW 25.1 31.1----29.60- 57.7 53.2----
2024-02-23 10:42 am SW 24.1 28.9----29.60- 57.7 53.2----
2024-02-23 10:36 am SW 26.0 31.1----29.60- 57.7 53.2----
2024-02-23 10:30 am SW 22.0 28.9----29.61- 57.2 53.2----
2024-02-23 10:24 am SW 22.0 31.1----29.61- 56.8 53.2----
2024-02-23 10:18 am SW 24.1 31.1----29.62- 56.3 53.2----
2024-02-23 10:12 am SW 25.1 31.1----29.62- 56.5 53.2----
2024-02-23 10:06 am SW 26.0 32.1----29.61- 55.6 53.2----
2024-02-23 10:00 am SW 20.0 26.0----29.62-0.01 55.4 53.2----
2024-02-23 09:54 am SW 18.1 24.1----29.62- 55.8 53.2----
2024-02-23 09:48 am SW 19.0 25.1----29.62- 56.5 53.2----
2024-02-23 09:42 am SW 17.1 22.0----29.63- 57.2 53.2----
2024-02-23 09:36 am SW 17.1 22.0----29.62- 58.1 53.2----
2024-02-23 09:30 am SW 15.0 19.0----29.62- 57.7 53.2----
2024-02-23 09:24 am SW 15.9 21.0----29.62- 57.2 53.2----
2024-02-23 09:18 am SW 15.9 20.0----29.62- 57.0 53.2----
2024-02-23 09:12 am SW 17.1 22.0----29.62- 57.0 53.2----
2024-02-23 09:06 am SW 14.0 18.1----29.63- 56.3 53.2----
2024-02-23 09:00 amWSW 12.0 15.0----29.64-0.01 56.1 53.2----
2024-02-23 08:54 amWSW 12.0 17.1----29.64- 56.3 53.2----
2024-02-23 08:48 amWSW 13.0 18.1----29.64- 56.7 53.2----
2024-02-23 08:42 amWSW 12.0 17.1----29.64- 57.0 53.2----
2024-02-23 08:36 amWSW 14.0 19.0----29.63- 57.4 53.2----
2024-02-23 08:30 am SW 17.1 21.0----29.63- 57.7 53.2----
2024-02-23 08:24 am SW 19.0 28.0----29.63- 58.6 53.2----
2024-02-23 08:18 am SW 24.1 32.1----29.63- 59.2 53.2----
2024-02-23 08:12 am SW 22.0 27.0----29.63- 61.0 53.2----
2024-02-23 08:06 am SW 20.0 25.1----29.63- 60.8 53.2----
2024-02-23 08:00 am SW 15.9 21.0----29.63-0.04 60.1 53.2----
2024-02-23 07:54 am SW 15.0 19.0----29.63- 60.3 53.2----
2024-02-23 07:48 amWSW 12.0 19.0----29.63- 60.1 53.2----
2024-02-23 07:42 am SW 13.0 24.1----29.63- 60.3 53.2----
2024-02-23 07:36 am SW 18.1 22.9----29.63- 60.6 53.2----
2024-02-23 07:30 am SW 17.1 22.0----29.63- 60.6 53.2----
2024-02-23 07:24 am SW 18.1 24.1----29.63- 60.8 53.2----
2024-02-23 07:18 am SW 17.1 24.1----29.63- 60.8 53.2----
2024-02-23 07:12 am SW 19.0 22.9----29.64- 61.0 53.2----
2024-02-23 07:06 am SW 21.0 25.1----29.63- 61.0 53.2----
2024-02-23 07:00 am SW 22.0 27.0----29.63-0.07 60.8 53.2----
2024-02-23 06:54 am SW 21.0 24.1----29.63- 60.8 53.2----
2024-02-23 06:48 amSSW 19.0 25.1----29.63- 60.8 53.2----
2024-02-23 06:42 am SW 19.0 24.1----29.63- 60.8 53.2----
2024-02-23 06:36 amSSW 20.0 24.1----29.64- 60.8 53.2----
2024-02-23 06:30 amSSW 21.0 25.1----29.63- 60.8 53.2----
2024-02-23 06:24 amSSW 19.0 22.0----29.63- 60.8 53.2----
2024-02-23 06:18 am SW 21.0 25.1----29.64- 61.0 53.2----
2024-02-23 06:12 am SW 20.0 25.1----29.64- 61.0 53.2----
2024-02-23 06:06 am SW 20.0 25.1----29.65- 60.8 53.2----
2024-02-23 06:00 am SW 18.1 22.0----29.65-0.07 60.4 53.2----
2024-02-23 05:54 am SW 20.0 25.1----29.65- 60.4 53.2----
2024-02-23 05:48 am SW 17.1 21.0----29.65- 60.3 53.2----
2024-02-23 05:42 am SW 15.9 22.0----29.65- 60.1 53.2----
2024-02-23 05:36 am SW 19.0 22.0----29.66- 60.1 53.2----
2024-02-23 05:30 am SW 19.0 24.1----29.66- 60.1 53.2----
2024-02-23 05:24 am SW 20.0 26.0----29.65- 60.3 53.2----
2024-02-23 05:18 am SW 20.0 24.1----29.66- 60.1 53.2----
2024-02-23 05:12 am SW 19.0 25.1----29.66- 60.3 53.2----
2024-02-23 05:06 am SW 21.0 27.0----29.66- 60.3 53.2----
2024-02-23 05:00 am SW 22.0 27.0----29.67-0.08 60.6 53.2----
2024-02-23 04:54 am SW 20.0 28.0----29.67- 60.6 53.2----
2024-02-23 04:48 am SW 22.0 26.0----29.67- 61.2 53.2----
2024-02-23 04:42 amSSW 20.0 27.0----29.67- 60.8 53.2----
2024-02-23 04:36 amSSW 20.0 24.1----29.67- 60.6 53.2----
2024-02-23 04:30 amSSW 18.1 24.1----29.67- 59.9 53.2----
2024-02-23 04:24 amSSW 21.0 24.1----29.68- 60.6 53.2----
2024-02-23 04:18 amSSW 19.0 24.1----29.69- 60.4 53.2----
2024-02-23 04:12 amSSW 19.0 22.9----29.69- 60.6 53.2----
2024-02-23 04:06 amSSW 18.1 22.9----29.70- 60.6 53.2----
2024-02-23 04:00 am SW 19.0 27.0----29.70-0.07 60.8 53.2----
2024-02-23 03:54 am SW 20.0 24.1----29.70- 61.0 53.2----
2024-02-23 03:48 amSSW 19.0 25.1----29.70- 61.0 53.2----
2024-02-23 03:42 amSSW 21.0 26.0----29.70- 60.8 53.2----
2024-02-23 03:36 amSSW 19.0 25.1----29.70- 61.0 53.2----
2024-02-23 03:30 amSSW 21.0 24.1----29.70- 61.2 53.2----
2024-02-23 03:24 amSSW 19.0 22.9----29.71- 61.0 53.2----
2024-02-23 03:18 am SW 19.0 22.0----29.72- 61.0 53.2----
2024-02-23 03:12 amSSW 19.0 21.0----29.72- 60.1 53.2----
2024-02-23 03:06 amSSW 15.9 19.0----29.72- 58.8 53.2----
2024-02-23 03:00 amSSW 14.0 15.0----29.72-0.09 57.7 53.2----
2024-02-23 02:54 amSSW 11.1 14.0----29.72- 56.5 53.2----
2024-02-23 02:48 am S 12.0 14.0----29.73- 56.3 53.2----
2024-02-23 02:42 amSSW 13.0 15.0----29.73- 56.8 53.2----
2024-02-23 02:36 am S 14.0 15.0----29.74- 57.0 53.2----
2024-02-23 02:30 am S 12.0 19.0----29.74- 57.7 53.2----
2024-02-23 02:24 amSSW 17.1 20.0----29.74- 59.9 53.2----
2024-02-23 02:18 amSSW 15.9 19.0----29.74- 59.9 53.2----
2024-02-23 02:12 amSSW 15.9 18.1----29.74- 59.7 53.2----
2024-02-23 02:06 amSSW 15.0 17.1----29.74- 59.4 53.2----
2024-02-23 02:00 amSSW 15.0 17.1----29.75-0.07 59.4 53.2----
2024-02-23 01:54 amSSW 15.9 18.1----29.75- 58.5 53.2----
2024-02-23 01:48 amSSW 15.9 18.1----29.75- 58.3 53.2----
2024-02-23 01:42 amSSW 17.1 19.0----29.75- 58.6 53.2----
2024-02-23 01:36 amSSW 15.9 19.0----29.75- 59.0 53.2----
2024-02-23 01:30 amSSW 17.1 19.0----29.76- 59.2 53.2----
2024-02-23 01:24 amSSW 15.9 19.0----29.76- 59.2 53.2----
2024-02-23 01:18 amSSW 15.9 18.1----29.77- 59.0 53.2----
2024-02-23 01:12 amSSW 15.9 19.0----29.77- 59.2 53.2----
2024-02-23 01:06 amSSW 14.0 15.9----29.77- 58.6 53.2----
2024-02-23 01:00 amSSW 13.0 15.9----29.78-0.06 58.5 53.2----
2024-02-23 12:54 amSSW 13.0 17.1----29.78- 58.3 53.2----
2024-02-23 12:48 amSSW 13.0 15.0----29.78- 58.3 53.2----
2024-02-23 12:42 amSSW 11.1 13.0----29.78- 58.1 53.2----
2024-02-23 12:36 amSSW 11.1 13.0----29.78- 57.9 53.2----
2024-02-23 12:30 am SW 11.1 12.0----29.79- 57.9 53.4----
2024-02-23 12:24 am SW 9.9 15.9----29.80- 57.9 53.2----
2024-02-23 12:18 am SW 11.1 14.0----29.80- 58.1 53.2----
2024-02-23 12:12 am SW 11.1 13.0----29.80- 58.1 53.2----
2024-02-23 12:06 am SW 9.9 13.0----29.81- 58.1 53.4----
2024-02-23 12:00 am SW 8.9 11.1----29.81-0.04 58.3 53.4----
2024-02-22 11:54 pm SW 7.0 11.1----29.81- 58.1 53.4----
2024-02-22 11:48 pm SW 8.0 9.9----29.81- 58.3 53.4----
2024-02-22 11:42 pm SW 8.0 11.1----29.81- 58.1 53.4----
2024-02-22 11:36 pm SW 7.0 8.0----29.81- 56.8 53.4----
2024-02-22 11:30 pmSSW 7.0 7.0----29.81- 55.9 53.4----
2024-02-22 11:24 pmSSW 7.0 8.0----29.82- 55.9 53.4----
2024-02-22 11:18 pmSSW 7.0 8.0----29.82- 55.8 53.4----
2024-02-22 11:12 pmSSW 8.0 8.9----29.82- 55.9 53.4----
2024-02-22 11:06 pmSSW 8.9 9.9----29.82- 55.8 53.4----
2024-02-22 11:00 pmSSW 8.9 9.9----29.82-0.05 55.8 53.4----
2024-02-22 10:54 pmSSW 9.9 12.0----29.82- 55.9 53.4----
2024-02-22 10:48 pm S 11.1 12.0----29.82- 56.1 53.4----
2024-02-22 10:42 pmSSW 12.0 13.0----29.82- 56.1 53.6----
2024-02-22 10:36 pmSSW 9.9 11.1----29.82- 55.6 53.6----
2024-02-22 10:30 pmSSW 11.1 12.0----29.83- 55.6 53.6----
2024-02-22 10:24 pmSSW 11.1 12.0----29.83- 55.4 53.6----
2024-02-22 10:18 pmSSW 11.1 12.0----29.83- 55.4 53.6----
2024-02-22 10:12 pmSSW 9.9 13.0----29.83- 55.6 53.6----
2024-02-22 10:06 pmSSW 13.0 14.0----29.83- 55.8 53.6----
2024-02-22 10:00 pmSSW 14.0 15.0----29.84-0.06 56.5 53.6----
2024-02-22 09:54 pmSSW 14.0 15.0----29.84- 56.1 53.6----